Meteo Giornale » Osservazioni meteo Stati Uniti (USA) » Los Angeles

ore: 04:53 - Osservazioni Meteo Los Angeles
Lat. 33° 56' N Lon. 118° 23' W Alt. 38 metri s.l.m.

coperto America/Los_Angeles

15 °C

Coperto

Temp. 24 Ore

14 °C

19 °C

Nord

5.5 Km/h

Dew point 11 °C

Umidità 76 %

Visibilità  10 Km

Il sole sorge alle ore 05:44

Il sole tramonta alle ore 19:57

Data e Ora Cielo e Fenomeni T °C DP °C Um. % Pres. hPa Vis. km Vento km/h
Oggi h: 04:53 coperto Coperto 15 11 76 1010 10 N 5.5
Oggi h: 03:53 coperto Coperto 15 11 76 1010 10 O/SO 9.3
Oggi h: 02:53 coperto Coperto 15 11 76 1010 10 S 9.3
Oggi h: 01:53 coperto Coperto 16 11 72 1011 10 N 0
Oggi h: 00:53 coperto Coperto 15 12 82 1011 10 N 5.5
Ieri h: 23:53 coperto Coperto 15 12 82 1011 10 O/SO 9.3
Ieri h: 22:53 coperto Coperto 15 11 76 1010 10 O/SO 14.8
Ieri h: 22:11 molto_nuvoloso Molto Nuvoloso 14 12 87 1010 10 O/SO 14.8
Ieri h: 21:53 coperto Coperto 14 12 87 1010 10 O/SO 18.5
Ieri h: 21:39 coperto Coperto 14 12 87 1010 10 O/SO 18.5
Ieri h: 21:27 nuvoloso Nuvoloso 15 11 76 1010 10 O 18.5
Ieri h: 20:53 coperto Coperto 15 12 82 1010 10 O/SO 20.3
Ieri h: 19:53 molto_nuvoloso Molto Nuvoloso 15 12 82 1009 10 O 16.7
Ieri h: 18:53 molto_nuvoloso Molto Nuvoloso 16 12 77 1009 10 O/SO 16.7
Ieri h: 17:53 molto_nuvoloso Molto Nuvoloso 16 12 77 1009 10 O/SO 24
Ieri h: 16:53 molto_nuvoloso Molto Nuvoloso 17 13 77 1009 10 O/SO 25.9
Ieri h: 16:36 molto_nuvoloso Molto Nuvoloso 18 13 72 1009 10 O 24
Ieri h: 15:53 poco_nuvoloso Poco Nuvoloso 18 13 72 1010 10 O/SO 25.9
Ieri h: 14:53 nuvoloso Nuvoloso 19 13 68 1010 10 O/SO 27.8
Ieri h: 13:53 molto_nuvoloso Molto Nuvoloso 19 13 68 1010 13 O/SO 16.7
Ieri h: 12:53 molto_nuvoloso Molto Nuvoloso 19 13 68 1011 11 O/SO 14.8
Ieri h: 11:53 nuvoloso Nuvoloso 18 13 72 1011 11 O/SO 18.5
Ieri h: 10:53 molto_nuvoloso Molto Nuvoloso 17 13 77 1012 11 S 7.4
Ieri h: 10:48 molto_nuvoloso Molto Nuvoloso 17 13 77 1011 11 SO 7.4
Ieri h: 09:53 foschia Foschia 16 13 82 1012 10 SO 9.3
Ieri h: 09:11 foschia Foschia 15 13 87 1012 8 SO 13
Ieri h: 08:53 foschia Foschia 15 13 87 1012 8 SO 11.1
Ieri h: 07:53 foschia Foschia 14 14 100 1012 5 SO 13
Ieri h: 06:53 foschia Foschia 14 14 100 1012 2 O/SO 13
Ieri h: 05:53 foschia Foschia 15 14 93 1011 2 N 5.5
Ieri h: 05:46 foschia Foschia 15 14 93 1011 2 N 5.5